Location: Mentone
(34.5413°N, 85.5351°W)
Time: 20:51:05
(UTC-06:00)

Tiros 1 despin weight - All Passes

Search period start: 11 December 2017 00:00
Search period end: 21 December 2017 00:00
Orbit: 595 x 643 km, 48.2° (Epoch: 11 December)

Date Brightness Start Highest point End Pass type
(mag) Time Alt. Az. Time Alt. Az. Time Alt. Az.
11 Dec - 00:00:44 10° WNW 00:03:51 18° NNW 00:06:55 10° NNE night (unlit)
11 Dec - 01:44:16 10° NNW 01:46:50 15° N 01:49:23 10° NE night (unlit)
11 Dec - 03:25:29 10° NW 03:29:30 31° NNE 03:33:28 10° E visible
11 Dec - 05:06:54 10° WNW 05:11:11 48° SW 05:15:26 10° SSE visible
11 Dec - 20:52:15 10° SW 20:56:47 55° SE 21:01:16 10° ENE night (unlit)
11 Dec - 22:34:27 10° W 22:38:33 30° NNW 22:42:36 10° NE night (unlit)
12 Dec - 00:18:40 10° NW 00:21:15 15° N 00:23:49 10° NNE night (unlit)
12 Dec - 02:01:08 10° NNW 02:04:14 18° NNE 02:07:19 10° ENE night (unlit)
12 Dec - 03:42:09 10° NW 03:46:34 55° NNE 03:50:54 10° ESE visible
12 Dec - 05:24:23 10° W 05:27:51 22° SW 05:31:16 10° S visible
12 Dec - 19:29:24 10° S 19:32:27 17° SE 19:35:27 10° E night (unlit)
12 Dec - 21:08:59 10° WSW 21:13:37 74° NW 21:18:13 10° NE night (unlit)
12 Dec - 22:52:17 10° WNW 22:55:47 21° NNW 22:59:14 10° NNE night (unlit)
13 Dec - 00:36:15 10° NNW 00:38:42 14° N 00:41:09 10° NE night (unlit)
13 Dec - 02:17:48 10° NNW 02:21:32 25° NNE 02:25:13 10° ENE night (unlit)
13 Dec - 03:59:00 10° NW 04:03:28 75° SW 04:07:51 10° SE visible
13 Dec - 19:44:48 10° SSW 19:49:04 36° SE 19:53:17 10° ENE visible
13 Dec - 21:26:14 10° W 21:30:37 40° NNW 21:34:57 10° NE night (unlit)
13 Dec - 23:10:15 10° NW 23:13:08 16° N 23:16:00 10° NNE night (unlit)
14 Dec - 00:53:20 10° NNW 00:56:09 16° N 00:58:57 10° NE night (unlit)
14 Dec - 02:34:26 10° NW 02:38:41 39° NNE 02:42:52 10° E night (unlit)
14 Dec - 04:16:09 10° WNW 04:20:12 34° SW 04:24:11 10° SSE visible
14 Dec - 18:23:39 10° SE 18:24:49 11° SE 18:25:59 10° ESE visible
14 Dec - 20:01:09 10° SW 20:05:49 76° SE 20:10:25 10° NE visible
14 Dec - 21:43:53 10° W 21:47:45 25° NNW 21:51:35 10° NE night (unlit)
14 Dec - 23:28:04 10° NW 23:30:35 14° N 23:33:05 10° NNE night (unlit)
15 Dec - 01:10:06 10° NNW 01:13:31 21° NNE 01:16:54 10° ENE night (unlit)
15 Dec - 02:51:10 10° NW 02:55:41 75° NE 03:00:06 10° ESE visible
15 Dec - 04:34:05 10° W 04:36:47 16° SW 04:39:28 10° SSW visible
15 Dec - 18:37:37 10° S 18:41:21 24° SE 18:45:06 10° ENE visible
15 Dec - 20:18:07 10° WSW 20:22:42 56° NNW 20:27:15 10° NE visible
15 Dec - 22:01:48 10° WNW 22:05:02 18° NNW 22:08:16 10° NNE night (unlit)
15 Dec - 23:45:26 10° NNW 23:48:02 15° N 23:50:38 10° NE night (unlit)
16 Dec - 01:26:45 10° NW 01:30:46 30° NNE 01:34:42 10° E night (unlit)
16 Dec - 03:08:07 10° WNW 03:12:30 53° SW 03:16:48 10° SE visible
16 Dec - 18:53:31 10° SSW 18:58:02 50° SE 19:02:32 10° ENE visible
16 Dec - 20:35:34 10° W 20:39:46 32° NNW 20:43:56 10° NE visible
16 Dec - 22:19:44 10° NW 22:22:27 15° N 22:25:09 10° NNE night (unlit)
17 Dec - 00:02:21 10° NNW 00:05:27 18° NNE 00:08:32 10° ENE night (unlit)
17 Dec - 01:43:24 10° NW 01:47:50 51° NNE 01:52:11 10° ESE night (unlit)
17 Dec - 03:25:31 10° WNW 03:29:10 25° SW 03:32:46 10° S night (unlit)
17 Dec - 17:30:54 10° SSE 17:33:42 16° SE 17:36:31 10° E visible
17 Dec - 19:10:10 10° SW 19:14:51 80° NW 19:19:30 10° NE visible
17 Dec - 20:53:21 10° WNW 20:56:59 22° NNW 21:00:35 10° NNE night (unlit)
17 Dec - 22:37:22 10° NNW 22:39:54 14° N 22:42:25 10° NE night (unlit)
18 Dec - 00:19:02 10° NNW 00:22:46 24° NNE 00:26:26 10° ENE night (unlit)
18 Dec - 02:00:13 10° NW 02:04:45 81° SW 02:09:12 10° SE night (unlit)
18 Dec - 03:44:32 10° WSW 03:45:42 11° SW 03:46:52 10° SW night (unlit)
18 Dec - 17:46:06 10° SSW 17:50:18 33° SE 17:54:30 10° ENE visible
18 Dec - 19:27:21 10° WSW 19:31:49 43° NNW 19:36:15 10° NE visible
18 Dec - 21:11:18 10° NW 21:14:19 17° NNW 21:17:20 10° NNE night (unlit)
18 Dec - 22:54:31 10° NNW 22:57:21 16° N 23:00:09 10° NE night (unlit)
19 Dec - 00:35:41 10° NW 00:39:56 37° NNE 00:44:07 10° E night (unlit)
19 Dec - 02:17:19 10° WNW 02:21:30 38° SW 02:25:36 10° SSE night (unlit)
19 Dec - 18:02:22 10° SW 18:07:02 70° SE 18:11:41 10° ENE visible
19 Dec - 19:44:57 10° W 19:48:57 27° NNW 19:52:55 10° NE visible
19 Dec - 21:29:08 10° NW 21:31:45 15° N 21:34:21 10° NNE night (unlit)
19 Dec - 23:11:18 10° NNW 23:14:43 20° NNE 23:18:06 10° ENE night (unlit)
20 Dec - 00:52:24 10° NW 00:56:57 69° NE 01:01:24 10° ESE night (unlit)
20 Dec - 02:35:06 10° W 02:38:06 18° SW 02:41:05 10° S night (unlit)
20 Dec - 16:39:00 10° S 16:42:37 22° SE 16:46:13 10° E daylight
20 Dec - 18:19:17 10° WSW 18:23:55 61° NW 18:28:32 10° NE visible
20 Dec - 20:02:50 10° WNW 20:06:13 19° NNW 20:09:35 10° NNE visible
20 Dec - 21:46:33 10° NNW 21:49:13 15° N 21:51:51 10° NE night (unlit)
20 Dec - 23:27:58 10° NW 23:31:59 29° NNE 23:35:55 10° E night (unlit)
